NBT420 LIPZ-LFML

Flight info

Callsign NBT420
Flight time 1h 13m
Altitude 39000
Route CHI DCT OTGIG DCT NEVMO DCT ELBUK DCT ENOBA DCT ASBOP/N0354F190 Z185 BORDI/N0369F220 DCT PIGOS/N0375F230 DCT STP/N0349F180 A3 RUBIT G7 LANKO
Aircraft B789/H-SDE1E2E3FGHIJ2J3J4J5M1RWXY/LB1D1

Departure

Time 2026-05-04 22:15
Airport Venice Marco Polo Airport (LIPZ)

Arrival

Time 2026-05-04 23:28
Airport Marseille Provence Airport (LFML)
Time Latitude Longitude Altitude Speed Heading
2026-05-04 21:59 45.50552 12.34231 21 ft 0 kts 268°
2026-05-04 22:07 45.50552 12.34255 22 ft 4 kts 268°
2026-05-04 22:08 45.50554 12.34293 21 ft 4 kts 262°
2026-05-04 22:08 45.50560 12.34324 24 ft 4 kts 231°
2026-05-04 22:08 45.50572 12.34337 24 ft 3 kts 179°
2026-05-04 22:08 45.50594 12.34336 23 ft 4 kts 177°
2026-05-04 22:09 45.50613 12.34335 25 ft 0 kts 177°
2026-05-04 22:11 45.50576 12.34337 24 ft 11 kts 177°
2026-05-04 22:11 45.50473 12.34344 21 ft 19 kts 178°
2026-05-04 22:11 45.50302 12.34354 26 ft 26 kts 177°
2026-05-04 22:12 45.50153 12.34351 21 ft 21 kts 196°
2026-05-04 22:12 45.50040 12.34231 20 ft 23 kts 223°
2026-05-04 22:12 45.49906 12.34055 20 ft 29 kts 221°
2026-05-04 22:12 45.49741 12.33845 21 ft 33 kts 223°
2026-05-04 22:13 45.49585 12.33642 21 ft 19 kts 222°
2026-05-04 22:13 45.49513 12.33610 26 ft 9 kts 158°
2026-05-04 22:13 45.49456 12.33686 21 ft 14 kts 131°
2026-05-04 22:13 45.49428 12.33774 20 ft 3 kts 70°
2026-05-04 22:14 45.49462 12.33836 20 ft 0 kts 43°
2026-05-04 22:14 45.49472 12.33850 20 ft 12 kts 43°
2026-05-04 22:14 45.49667 12.34101 18 ft 76 kts 41°
2026-05-04 22:14 45.50271 12.34854 27 ft 151 kts 41°
2026-05-04 22:15 45.51087 12.35891 681 ft 152 kts 43°
2026-05-04 22:15 45.51859 12.36919 1384 ft 158 kts 44°
2026-05-04 22:15 45.52678 12.38137 1867 ft 187 kts 47°
2026-05-04 22:15 45.53537 12.39721 2482 ft 213 kts 67°
2026-05-04 22:16 45.53557 12.41777 3514 ft 208 kts 102°
2026-05-04 22:16 45.53316 12.43820 4591 ft 210 kts 100°
2026-05-04 22:16 45.53109 12.45899 5624 ft 213 kts 99°
2026-05-04 22:16 45.52900 12.48011 6610 ft 217 kts 99°
2026-05-04 22:17 45.52681 12.50160 7515 ft 221 kts 101°
2026-05-04 22:17 45.52177 12.52217 8348 ft 222 kts 130°
2026-05-04 22:17 45.51015 12.53576 9203 ft 224 kts 158°
2026-05-04 22:17 45.49415 12.53863 9601 ft 248 kts 189°
2026-05-04 22:18 45.47619 12.53437 10138 ft 274 kts 192°
2026-05-04 22:18 45.45658 12.52912 10646 ft 300 kts 191°
2026-05-04 22:18 45.43508 12.52389 11143 ft 326 kts 190°
2026-05-04 22:18 45.41252 12.51874 12199 ft 329 kts 189°
2026-05-04 22:19 45.39715 12.51518 12914 ft 334 kts 190°
2026-05-04 22:19 45.37405 12.50965 13936 ft 340 kts 190°
2026-05-04 22:19 45.35052 12.50401 14803 ft 347 kts 190°
2026-05-04 22:19 45.32753 12.49468 15630 ft 352 kts 207°
2026-05-04 22:20 45.30599 12.47740 16459 ft 359 kts 210°
2026-05-04 22:20 45.28436 12.45919 17360 ft 364 kts 211°
2026-05-04 22:20 45.26243 12.44055 18233 ft 370 kts 211°
2026-05-04 22:20 45.24006 12.42188 19023 ft 375 kts 211°
2026-05-04 22:21 45.21744 12.40316 19817 ft 379 kts 211°
2026-05-04 22:21 45.19460 12.38413 20588 ft 383 kts 211°
2026-05-04 22:21 45.17154 12.36486 21346 ft 387 kts 211°
2026-05-04 22:21 45.14823 12.34545 22070 ft 391 kts 211°
2026-05-04 22:22 45.12463 12.32587 22787 ft 395 kts 211°
2026-05-04 22:22 45.10082 12.30611 23477 ft 399 kts 211°
2026-05-04 22:22 45.07800 12.28371 24048 ft 401 kts 224°
2026-05-04 22:22 45.05950 12.25423 24626 ft 402 kts 237°
2026-05-04 22:23 45.04453 12.22078 25156 ft 404 kts 239°
2026-05-04 22:23 45.02973 12.18687 25760 ft 406 kts 239°
2026-05-04 22:23 45.01494 12.15274 26306 ft 408 kts 239°
2026-05-04 22:23 45.00203 12.11697 26841 ft 409 kts 250°
2026-05-04 22:24 44.99431 12.07832 27389 ft 410 kts 259°
2026-05-04 22:24 44.98878 12.03862 27888 ft 413 kts 259°
2026-05-04 22:24 44.98323 11.99889 28406 ft 415 kts 259°
2026-05-04 22:24 44.97771 11.95877 28929 ft 417 kts 259°
2026-05-04 22:25 44.97214 11.91846 29438 ft 420 kts 259°
2026-05-04 22:25 44.96648 11.87793 29920 ft 422 kts 259°
2026-05-04 22:25 44.96077 11.83718 30350 ft 424 kts 259°
2026-05-04 22:25 44.95502 11.79616 30740 ft 427 kts 259°
2026-05-04 22:26 44.94925 11.75499 31130 ft 429 kts 259°
2026-05-04 22:26 44.94342 11.71360 31507 ft 431 kts 259°
2026-05-04 22:26 44.93753 11.67197 31882 ft 433 kts 259°
2026-05-04 22:26 44.93161 11.63023 32247 ft 435 kts 259°
2026-05-04 22:27 44.92565 11.58824 32613 ft 437 kts 259°
2026-05-04 22:27 44.91965 11.54608 32970 ft 439 kts 259°
2026-05-04 22:27 44.91360 11.50379 33308 ft 441 kts 259°
2026-05-04 22:27 44.90751 11.46130 33638 ft 443 kts 259°
2026-05-04 22:28 44.90139 11.41868 33971 ft 444 kts 259°
2026-05-04 22:28 44.89489 11.37600 34250 ft 446 kts 256°
2026-05-04 22:28 44.88742 11.33345 34469 ft 448 kts 257°
2026-05-04 22:28 44.88024 11.29066 34800 ft 448 kts 257°
2026-05-04 22:29 44.87304 11.24801 35151 ft 447 kts 257°
2026-05-04 22:29 44.86563 11.20544 35488 ft 447 kts 256°
2026-05-04 22:29 44.85820 11.16286 35804 ft 447 kts 257°
2026-05-04 22:29 44.85097 11.12087 36115 ft 447 kts 257°
2026-05-04 22:30 44.84354 11.07777 36443 ft 447 kts 257°
2026-05-04 22:30 44.83623 11.03585 36753 ft 446 kts 256°
2026-05-04 22:30 44.82881 10.99340 37056 ft 446 kts 256°
2026-05-04 22:30 44.82140 10.95096 37358 ft 446 kts 256°
2026-05-04 22:31 44.81399 10.90857 37660 ft 446 kts 256°
2026-05-04 22:31 44.80653 10.86609 37952 ft 446 kts 256°
2026-05-04 22:31 44.79906 10.82373 38233 ft 446 kts 256°
2026-05-04 22:31 44.79159 10.78132 38512 ft 446 kts 256°
2026-05-04 22:32 44.78409 10.73893 38773 ft 446 kts 256°
2026-05-04 22:32 44.77657 10.69647 38923 ft 448 kts 256°
2026-05-04 22:32 44.76901 10.65391 39079 ft 449 kts 256°
2026-05-04 22:33 44.75370 10.56806 39088 ft 453 kts 256°
2026-05-04 22:33 44.73838 10.48253 39076 ft 451 kts 256°
2026-05-04 22:34 44.72300 10.39703 39072 ft 451 kts 256°
2026-05-04 22:34 44.70757 10.31172 39069 ft 450 kts 256°
2026-05-04 22:35 44.69213 10.22671 39071 ft 448 kts 256°
2026-05-04 22:35 44.67667 10.14199 39077 ft 448 kts 256°
2026-05-04 22:36 44.66111 10.05713 39081 ft 449 kts 256°
2026-05-04 22:36 44.64549 9.97227 39081 ft 449 kts 256°
2026-05-04 22:37 44.62978 9.88735 39079 ft 449 kts 255°
2026-05-04 22:37 44.61324 9.80346 39086 ft 449 kts 254°
2026-05-04 22:38 44.59655 9.71896 39093 ft 449 kts 254°
2026-05-04 22:38 44.57921 9.63467 39095 ft 450 kts 254°
2026-05-04 22:39 44.56210 9.55036 39090 ft 450 kts 254°
2026-05-04 22:39 44.54479 9.46614 39093 ft 449 kts 254°
2026-05-04 22:40 44.52749 9.38198 39093 ft 449 kts 254°
2026-05-04 22:40 44.51010 9.29788 39087 ft 449 kts 253°
2026-05-04 22:41 44.49266 9.21384 39087 ft 449 kts 253°
2026-05-04 22:41 44.47515 9.12984 39078 ft 449 kts 253°
2026-05-04 22:42 44.45758 9.04583 39086 ft 449 kts 253°
2026-05-04 22:42 44.43998 8.96207 39088 ft 448 kts 253°
2026-05-04 22:43 44.42234 8.87846 39081 ft 448 kts 253°
2026-05-04 22:43 44.40467 8.79504 39088 ft 447 kts 253°
2026-05-04 22:44 44.38693 8.71162 39079 ft 447 kts 253°
2026-05-04 22:44 44.36916 8.62844 39079 ft 447 kts 253°
2026-05-04 22:45 44.35133 8.54524 39081 ft 447 kts 253°
2026-05-04 22:45 44.32456 8.42101 39074 ft 448 kts 253°
2026-05-04 22:46 44.30651 8.33791 39081 ft 447 kts 250°
2026-05-04 22:46 44.27753 8.26165 39082 ft 448 kts 236°
2026-05-04 22:47 44.24223 8.19019 39085 ft 447 kts 236°
2026-05-04 22:47 44.20671 8.11884 39077 ft 448 kts 236°
2026-05-04 22:48 44.17124 8.04755 39079 ft 448 kts 236°
2026-05-04 22:48 44.13569 7.97637 39079 ft 448 kts 236°
2026-05-04 22:49 44.10014 7.90534 39077 ft 447 kts 236°
2026-05-04 22:49 44.06454 7.83441 39072 ft 447 kts 236°
2026-05-04 22:50 44.02797 7.76487 38769 ft 444 kts 227°
2026-05-04 22:50 44.00540 7.73570 38136 ft 443 kts 219°
2026-05-04 22:50 43.98161 7.71248 37576 ft 440 kts 216°
2026-05-04 22:51 43.95692 7.68885 37049 ft 436 kts 217°
2026-05-04 22:51 43.94532 7.67762 36787 ft 434 kts 217°
2026-05-04 22:51 43.92062 7.65387 36268 ft 430 kts 216°
2026-05-04 22:51 43.89606 7.63056 35755 ft 426 kts 216°
2026-05-04 22:52 43.87171 7.60747 35242 ft 423 kts 216°
2026-05-04 22:53 43.85841 7.59481 34957 ft 421 kts 216°
2026-05-04 22:53 43.83441 7.57191 34449 ft 417 kts 216°
2026-05-04 22:53 43.81058 7.54925 33934 ft 414 kts 216°
2026-05-04 22:53 43.78693 7.52684 33421 ft 410 kts 216°
2026-05-04 22:54 43.76355 7.50469 32938 ft 405 kts 216°
2026-05-04 22:54 43.74043 7.48277 32448 ft 401 kts 216°
2026-05-04 22:54 43.71756 7.46111 31983 ft 396 kts 215°
2026-05-04 22:54 43.69491 7.43970 31522 ft 392 kts 215°
2026-05-04 22:55 43.67248 7.41852 31060 ft 389 kts 215°
2026-05-04 22:55 43.65026 7.39755 30614 ft 385 kts 215°
2026-05-04 22:55 43.62932 7.37649 30175 ft 381 kts 223°
2026-05-04 22:55 43.61141 7.34991 29717 ft 377 kts 233°
2026-05-04 22:56 43.59622 7.32062 29267 ft 375 kts 233°
2026-05-04 22:56 43.58099 7.29144 28827 ft 375 kts 233°
2026-05-04 22:56 43.56577 7.26213 28393 ft 377 kts 234°
2026-05-04 22:56 43.55060 7.23279 27956 ft 375 kts 234°
2026-05-04 22:57 43.53554 7.20375 27542 ft 370 kts 233°
2026-05-04 22:57 43.52061 7.17509 27114 ft 366 kts 233°
2026-05-04 22:57 43.50578 7.14663 26690 ft 366 kts 233°
2026-05-04 22:57 43.49115 7.11853 26265 ft 367 kts 233°
2026-05-04 22:58 43.47629 7.09001 25863 ft 366 kts 233°
2026-05-04 22:58 43.46154 7.06175 25448 ft 361 kts 233°
2026-05-04 22:58 43.44695 7.03384 25043 ft 357 kts 234°
2026-05-04 22:58 43.43247 7.00616 24638 ft 356 kts 234°
2026-05-04 22:59 43.41798 6.97847 24224 ft 357 kts 234°
2026-05-04 22:59 43.40349 6.95081 23827 ft 356 kts 234°
2026-05-04 22:59 43.38911 6.92339 23399 ft 352 kts 234°
2026-05-04 22:59 43.37491 6.89633 22996 ft 346 kts 234°
2026-05-04 23:00 43.36087 6.86962 22609 ft 344 kts 234°
2026-05-04 23:00 43.34685 6.84295 22215 ft 344 kts 234°
2026-05-04 23:00 43.33281 6.81629 21828 ft 344 kts 234°
2026-05-04 23:00 43.31887 6.78982 21438 ft 339 kts 234°
2026-05-04 23:01 43.30516 6.76380 21058 ft 335 kts 234°
2026-05-04 23:01 43.29150 6.73793 20677 ft 335 kts 234°
2026-05-04 23:01 43.27781 6.71201 20300 ft 336 kts 234°
2026-05-04 23:01 43.26416 6.68619 19924 ft 331 kts 234°
2026-05-04 23:02 43.25073 6.66081 19564 ft 328 kts 234°
2026-05-04 23:02 43.23731 6.63548 19193 ft 329 kts 234°
2026-05-04 23:02 43.22541 6.60898 18838 ft 325 kts 248°
2026-05-04 23:02 43.22016 6.57900 18501 ft 327 kts 265°
2026-05-04 23:03 43.22022 6.54768 18107 ft 330 kts 269°
2026-05-04 23:03 43.22068 6.51643 17724 ft 325 kts 269°
2026-05-04 23:03 43.22123 6.48564 17366 ft 323 kts 269°
2026-05-04 23:03 43.22167 6.45476 17011 ft 325 kts 268°
2026-05-04 23:04 43.22206 6.42377 16654 ft 325 kts 268°
2026-05-04 23:04 43.22249 6.39307 16301 ft 319 kts 268°
2026-05-04 23:04 43.22297 6.36277 15944 ft 318 kts 268°
2026-05-04 23:04 43.22341 6.33245 15598 ft 319 kts 268°
2026-05-04 23:05 43.22385 6.30201 15241 ft 317 kts 267°
2026-05-04 23:05 43.22429 6.27210 14892 ft 313 kts 267°
2026-05-04 23:05 43.22468 6.24223 14549 ft 314 kts 267°
2026-05-04 23:05 43.22494 6.22244 14315 ft 312 kts 267°
2026-05-04 23:06 43.22536 6.19298 13970 ft 308 kts 267°
2026-05-04 23:06 43.22574 6.16351 13611 ft 311 kts 266°
2026-05-04 23:06 43.22611 6.13386 13254 ft 311 kts 267°
2026-05-04 23:06 43.22653 6.09517 12795 ft 304 kts 266°
2026-05-04 23:07 43.22669 6.07554 12567 ft 306 kts 266°
2026-05-04 23:07 43.22701 6.03671 12118 ft 306 kts 266°
2026-05-04 23:07 43.22725 6.01718 11946 ft 300 kts 269°
2026-05-04 23:07 43.23004 5.98872 11871 ft 303 kts 274°
2026-05-04 23:08 43.23362 5.95032 11818 ft 309 kts 273°
2026-05-04 23:08 43.23542 5.93054 11783 ft 310 kts 273°
2026-05-04 23:08 43.23827 5.90164 11759 ft 310 kts 274°
2026-05-04 23:08 43.24123 5.87238 11722 ft 309 kts 274°
2026-05-04 23:09 43.24410 5.84318 11692 ft 309 kts 274°
2026-05-04 23:09 43.24691 5.81393 11654 ft 309 kts 274°
2026-05-04 23:09 43.24974 5.78470 11623 ft 309 kts 274°
2026-05-04 23:09 43.25154 5.76625 11606 ft 309 kts 274°
2026-05-04 23:10 43.25437 5.73708 11577 ft 308 kts 274°
2026-05-04 23:10 43.25718 5.70804 11544 ft 306 kts 273°
2026-05-04 23:10 43.25996 5.67896 11512 ft 310 kts 274°
2026-05-04 23:10 43.26277 5.64966 11489 ft 308 kts 274°
2026-05-04 23:11 43.26556 5.62056 11458 ft 308 kts 274°
2026-05-04 23:11 43.26917 5.59163 11421 ft 310 kts 285°
2026-05-04 23:11 43.27754 5.56512 11390 ft 293 kts 289°
2026-05-04 23:11 43.28468 5.53983 11321 ft 277 kts 286°
2026-05-04 23:12 43.29146 5.51538 11256 ft 272 kts 287°
2026-05-04 23:12 43.29851 5.49137 11217 ft 271 kts 288°
2026-05-04 23:12 43.30562 5.46747 11181 ft 270 kts 288°
2026-05-04 23:12 43.31266 5.44349 11148 ft 271 kts 288°
2026-05-04 23:13 43.31963 5.41956 11130 ft 269 kts 288°
2026-05-04 23:13 43.32660 5.39565 11099 ft 270 kts 288°
2026-05-04 23:13 43.33359 5.37173 11089 ft 270 kts 288°
2026-05-04 23:13 43.34058 5.34778 11070 ft 270 kts 288°
2026-05-04 23:14 43.34755 5.32388 11057 ft 269 kts 288°
2026-05-04 23:14 43.35450 5.29998 11056 ft 269 kts 288°
2026-05-04 23:14 43.36144 5.27611 11052 ft 269 kts 288°
2026-05-04 23:14 43.36837 5.25226 11022 ft 269 kts 288°
2026-05-04 23:15 43.37530 5.22840 11005 ft 268 kts 288°
2026-05-04 23:15 43.38221 5.20458 11000 ft 269 kts 288°
2026-05-04 23:15 43.38913 5.18068 10991 ft 269 kts 288°
2026-05-04 23:15 43.39603 5.15683 10970 ft 268 kts 288°
2026-05-04 23:16 43.40293 5.13299 10957 ft 268 kts 288°
2026-05-04 23:16 43.40981 5.10914 10945 ft 268 kts 288°
2026-05-04 23:16 43.41661 5.08560 10936 ft 268 kts 288°
2026-05-04 23:16 43.42349 5.06174 10924 ft 268 kts 288°
2026-05-04 23:17 43.43046 5.03755 10911 ft 269 kts 288°
2026-05-04 23:17 43.43990 5.01580 10892 ft 275 kts 313°
2026-05-04 23:17 43.45408 4.99801 10901 ft 276 kts 312°
2026-05-04 23:17 43.46744 4.97942 10676 ft 272 kts 311°
2026-05-04 23:18 43.48086 4.96110 10188 ft 264 kts 312°
2026-05-04 23:18 43.49354 4.94450 9799 ft 244 kts 312°
2026-05-04 23:18 43.50578 4.92830 8951 ft 244 kts 312°
2026-05-04 23:18 43.51789 4.91209 8212 ft 241 kts 312°
2026-05-04 23:19 43.53001 4.89589 7476 ft 239 kts 312°
2026-05-04 23:19 43.54190 4.88003 6768 ft 237 kts 312°
2026-05-04 23:19 43.55369 4.86434 6056 ft 234 kts 313°
2026-05-04 23:19 43.56749 4.85268 5219 ft 238 kts 347°
2026-05-04 23:20 43.58333 4.85263 4981 ft 223 kts 18°
2026-05-04 23:20 43.59673 4.86295 5000 ft 230 kts 47°
2026-05-04 23:20 43.60552 4.88066 5027 ft 222 kts 64°
2026-05-04 23:20 43.61333 4.89917 4928 ft 221 kts 64°
2026-05-04 23:21 43.62078 4.91700 4764 ft 208 kts 67°
2026-05-04 23:21 43.62374 4.93540 4544 ft 190 kts 97°
2026-05-04 23:21 43.61893 4.95120 4404 ft 173 kts 127°
2026-05-04 23:21 43.61195 4.96397 4288 ft 160 kts 134°
2026-05-04 23:22 43.60469 4.97485 4194 ft 147 kts 135°
2026-05-04 23:22 43.59771 4.98499 4133 ft 151 kts 136°
2026-05-04 23:22 43.59014 4.99574 3945 ft 157 kts 136°
2026-05-04 23:22 43.58259 5.00655 3746 ft 156 kts 136°
2026-05-04 23:23 43.57509 5.01735 3531 ft 156 kts 136°
2026-05-04 23:23 43.56758 5.02804 3333 ft 154 kts 136°
2026-05-04 23:23 43.56016 5.03869 3130 ft 154 kts 136°
2026-05-04 23:23 43.55278 5.04926 2923 ft 151 kts 136°
2026-05-04 23:24 43.54549 5.05962 2716 ft 149 kts 135°
2026-05-04 23:24 43.53837 5.06992 2515 ft 147 kts 135°
2026-05-04 23:24 43.53145 5.07978 2321 ft 136 kts 135°
2026-05-04 23:24 43.52504 5.08888 2139 ft 130 kts 135°
2026-05-04 23:25 43.51887 5.09778 1986 ft 128 kts 134°
2026-05-04 23:25 43.51265 5.10663 1805 ft 128 kts 134°
2026-05-04 23:25 43.50648 5.11544 1637 ft 128 kts 133°
2026-05-04 23:25 43.50027 5.12433 1459 ft 130 kts 133°
2026-05-04 23:26 43.49393 5.13332 1284 ft 131 kts 133°
2026-05-04 23:26 43.48761 5.14248 1114 ft 133 kts 133°
2026-05-04 23:26 43.48107 5.15181 963 ft 137 kts 133°
2026-05-04 23:26 43.47441 5.16141 785 ft 139 kts 132°
2026-05-04 23:27 43.46945 5.16823 630 ft 137 kts 133°
2026-05-04 23:27 43.46462 5.17515 472 ft 135 kts 130°
2026-05-04 23:27 43.45823 5.18438 306 ft 135 kts 134°
2026-05-04 23:27 43.45172 5.19371 158 ft 137 kts 133°
2026-05-04 23:28 43.44512 5.20308 34 ft 132 kts 134°
2026-05-04 23:28 43.43989 5.21048 44 ft 85 kts 134°
2026-05-04 23:28 43.43650 5.21531 50 ft 61 kts 134°
2026-05-04 23:28 43.43400 5.21888 55 ft 30 kts 133°
2026-05-04 23:29 43.43334 5.22077 58 ft 19 kts 92°
2026-05-04 23:29 43.43346 5.22231 56 ft 12 kts 58°
2026-05-04 23:29 43.43396 5.22279 57 ft 9 kts 14°
2026-05-04 23:29 43.43453 5.22259 53 ft 9 kts 332°
2026-05-04 23:30 43.43486 5.22229 54 ft 4 kts 331°
2026-05-04 23:30 43.43511 5.22210 53 ft 5 kts 331°
2026-05-04 23:30 43.43543 5.22186 52 ft 6 kts 330°
2026-05-04 23:30 43.43576 5.22160 55 ft 5 kts 332°
2026-05-04 23:31 43.43610 5.22133 52 ft 6 kts 329°
2026-05-04 23:31 43.43649 5.22100 51 ft 7 kts 328°
2026-05-04 23:31 43.43695 5.22063 50 ft 8 kts 329°
2026-05-04 23:31 43.43748 5.22020 47 ft 9 kts 329°
2026-05-04 23:32 43.43798 5.21966 46 ft 8 kts 311°
2026-05-04 23:32 43.43838 5.21906 46 ft 9 kts 315°
2026-05-04 23:32 43.43885 5.21842 51 ft 10 kts 314°
2026-05-04 23:32 43.43936 5.21770 50 ft 11 kts 314°
2026-05-04 23:33 43.43977 5.21695 48 ft 6 kts 284°
2026-05-04 23:33 43.43971 5.21634 45 ft 10 kts 247°
2026-05-04 23:33 43.43926 5.21552 48 ft 9 kts 242°
2026-05-04 23:33 43.43938 5.21469 46 ft 15 kts 302°
2026-05-04 23:34 43.44019 5.21358 45 ft 18 kts 328°
2026-05-04 23:34 43.44076 5.21361 44 ft 11 kts 30°
2026-05-04 23:34 43.44130 5.21438 43 ft 10 kts 61°
2026-05-04 23:34 43.44149 5.21524 44 ft 9 kts 79°
2026-05-04 23:35 43.44167 5.21557 42 ft 2 kts 28°
2026-05-04 23:35 43.44171 5.21557 43 ft 1 kts 360°
2026-05-04 23:35 43.44177 5.21550 43 ft 1 kts 319°
2026-05-04 23:35 43.44189 5.21536 43 ft 7 kts 323°
2026-05-04 23:36 43.44226 5.21487 42 ft 6 kts 311°
2026-05-04 23:36 43.44232 5.21477 42 ft 0 kts 310°